Time,TemperatureF,DewpointF,PressureIn,WindDirection,WindDirectionDegrees,WindSpeedMPH,WindSpeedGustMPH,Humidity,HourlyPrecipIn,Conditions,Clouds,dailyrainin,SolarRadiationWatts/m^2,SoftwareType,DateUTC
2013-05-09 00:01:00,41.3,37.7,30.08,WNW,293,2.0,4.0,87,0.00,,,0.00,0,WeatherCatV1.15B25,2013-05-09 07:01:00,
2013-05-09 00:06:00,41.2,37.9,30.08,WNW,293,2.0,3.0,88,0.00,,,0.00,0,WeatherCatV1.15B25,2013-05-09 07:06:00,
2013-05-09 00:11:00,41.1,37.8,30.08,WNW,288,1.0,3.0,88,0.00,,,0.00,0,WeatherCatV1.15B25,2013-05-09 07:11:00,
2013-05-09 00:16:00,41.1,37.8,30.09,WNW,288,2.0,4.0,88,0.00,,,0.00,0,WeatherCatV1.15B25,2013-05-09 07:16:00,
2013-05-09 00:21:00,41.1,37.8,30.09,WNW,293,0.0,3.0,88,0.00,,,0.00,0,WeatherCatV1.15B25,2013-05-09 07:21:00,
2013-05-09 00:26:00,41.1,37.8,30.09,WNW,293,0.0,0.0,88,0.00,,,0.00,0,WeatherCatV1.15B25,2013-05-09 07:26:00,
2013-05-09 00:31:00,41.1,37.8,30.09,WNW,293,0.0,0.0,88,0.00,,,0.00,0,WeatherCatV1.15B25,2013-05-09 07:31:00,
2013-05-09 00:36:00,41.1,37.8,30.09,WNW,293,0.0,0.0,88,0.00,,,0.00,0,WeatherCatV1.15B25,2013-05-09 07:36:00,
2013-05-09 00:41:00,40.9,37.6,30.09,WNW,293,0.0,0.0,88,0.00,,,0.00,0,WeatherCatV1.15B25,2013-05-09 07:41:00,
2013-05-09 00:46:00,40.9,37.6,30.09,WNW,293,0.0,0.0,88,0.00,,,0.00,0,WeatherCatV1.15B25,2013-05-09 07:46:00,
2013-05-09 00:52:00,40.8,37.5,30.09,WNW,293,0.0,0.0,88,0.00,,,0.00,0,WeatherCatV1.15B25,2013-05-09 07:52:00,
2013-05-09 00:57:00,40.8,37.5,30.09,WNW,293,0.0,0.0,88,0.00,,,0.00,0,WeatherCatV1.15B25,2013-05-09 07:57:00,
2013-05-09 01:02:00,40.6,37.3,30.09,WNW,293,0.0,0.0,88,0.00,,,0.00,0,WeatherCatV1.15B25,2013-05-09 08:02:00,
2013-05-09 01:07:00,40.6,37.3,30.09,WNW,293,0.0,0.0,88,0.00,,,0.00,0,WeatherCatV1.15B25,2013-05-09 08:07:00,
2013-05-09 01:12:00,40.6,37.3,30.09,WNW,293,2.0,2.0,88,0.00,,,0.00,0,WeatherCatV1.15B25,2013-05-09 08:12:00,
2013-05-09 01:17:00,40.8,37.5,30.02,WNW,293,0.0,0.0,88,0.00,,,0.00,0,WeatherCatV1.15B25,2013-05-09 08:17:00,
2013-05-09 01:22:00,40.8,37.8,30.02,WNW,293,0.0,0.0,89,0.00,,,0.00,0,WeatherCatV1.15B25,2013-05-09 08:22:00,
2013-05-09 01:27:00,40.8,37.8,30.02,WNW,293,2.0,3.0,89,0.00,,,0.00,0,WeatherCatV1.15B25,2013-05-09 08:27:00,
2013-05-09 01:32:00,40.8,37.8,30.03,WNW,298,3.0,4.0,89,0.00,,,0.00,0,WeatherCatV1.15B25,2013-05-09 08:32:00,
2013-05-09 01:37:00,40.8,37.8,30.03,WNW,293,0.0,0.0,89,0.00,,,0.00,0,WeatherCatV1.15B25,2013-05-09 08:37:00,
2013-05-09 01:42:00,40.6,37.6,30.03,WNW,293,0.0,0.0,89,0.00,,,0.00,0,WeatherCatV1.15B25,2013-05-09 08:42:00,
2013-05-09 01:47:00,40.6,37.6,30.02,WNW,293,0.0,0.0,89,0.00,,,0.00,0,WeatherCatV1.15B25,2013-05-09 08:47:00,
2013-05-09 01:52:00,40.6,37.6,30.02,WNW,293,0.0,0.0,89,0.00,,,0.00,0,WeatherCatV1.15B25,2013-05-09 08:52:00,
2013-05-09 01:57:00,40.5,37.5,30.02,WNW,293,0.0,0.0,89,0.00,,,0.00,0,WeatherCatV1.15B25,2013-05-09 08:57:00,
2013-05-09 02:02:00,40.3,37.3,30.02,WNW,293,0.0,0.0,89,0.00,,,0.00,0,WeatherCatV1.15B25,2013-05-09 09:02:00,
2013-05-09 02:07:00,40.2,37.2,30.02,WNW,293,0.0,0.0,89,0.00,,,0.00,0,WeatherCatV1.15B25,2013-05-09 09:07:00,
2013-05-09 02:12:00,40.1,37.1,30.02,WNW,293,0.0,0.0,89,0.00,,,0.00,0,WeatherCatV1.15B25,2013-05-09 09:12:00,
2013-05-09 02:17:00,40.1,37.1,30.00,WNW,293,0.0,0.0,89,0.00,,,0.00,0,WeatherCatV1.15B25,2013-05-09 09:17:00,
2013-05-09 02:22:00,39.9,37.2,30.00,WNW,293,0.0,0.0,90,0.00,,,0.00,0,WeatherCatV1.15B25,2013-05-09 09:22:00,
2013-05-09 02:27:00,39.8,37.1,30.00,WNW,293,0.0,0.0,90,0.00,,,0.00,0,WeatherCatV1.15B25,2013-05-09 09:27:00,
2013-05-09 02:32:00,39.8,37.1,30.00,WNW,293,0.0,0.0,90,0.00,,,0.00,0,WeatherCatV1.15B25,2013-05-09 09:32:00,
2013-05-09 02:37:00,39.8,37.1,30.00,WNW,293,0.0,0.0,90,0.00,,,0.00,0,WeatherCatV1.15B25,2013-05-09 09:37:00,
2013-05-09 02:42:00,39.8,37.4,30.00,WNW,293,0.0,0.0,91,0.00,,,0.00,0,WeatherCatV1.15B25,2013-05-09 09:42:00,
2013-05-09 02:47:00,39.9,37.5,30.00,WNW,293,0.0,0.0,91,0.00,,,0.00,0,WeatherCatV1.15B25,2013-05-09 09:47:00,
2013-05-09 02:52:00,39.9,37.5,30.00,WNW,293,0.0,1.0,91,0.00,,,0.00,0,WeatherCatV1.15B25,2013-05-09 09:52:00,
2013-05-09 02:57:00,39.9,37.5,30.00,WNW,293,0.0,0.0,91,0.00,,,0.00,0,WeatherCatV1.15B25,2013-05-09 09:57:00,
2013-05-09 03:02:00,39.9,37.5,30.00,WNW,293,0.0,0.0,91,0.00,,,0.00,0,WeatherCatV1.15B25,2013-05-09 10:02:00,
2013-05-09 03:07:00,39.9,37.5,30.00,WNW,293,0.0,0.0,91,0.00,,,0.00,0,WeatherCatV1.15B25,2013-05-09 10:07:00,
2013-05-09 03:12:00,39.9,37.5,30.00,WNW,293,0.0,0.0,91,0.00,,,0.00,0,WeatherCatV1.15B25,2013-05-09 10:12:00,
2013-05-09 03:17:00,39.9,37.5,30.00,WNW,293,0.0,0.0,91,0.00,,,0.00,0,WeatherCatV1.15B25,2013-05-09 10:17:00,
2013-05-09 03:22:00,39.9,37.5,30.00,WNW,293,0.0,0.0,91,0.00,,,0.00,0,WeatherCatV1.15B25,2013-05-09 10:22:00,
2013-05-09 03:27:00,39.9,37.8,30.00,WNW,293,0.0,0.0,92,0.00,,,0.00,0,WeatherCatV1.15B25,2013-05-09 10:27:00,
2013-05-09 03:32:00,39.8,37.7,30.00,WNW,293,0.0,0.0,92,0.00,,,0.00,0,WeatherCatV1.15B25,2013-05-09 10:32:00,
2013-05-09 03:37:00,39.8,37.7,30.00,WNW,293,0.0,0.0,92,0.00,,,0.00,0,WeatherCatV1.15B25,2013-05-09 10:37:00,
2013-05-09 03:42:00,39.6,37.5,30.00,WNW,293,0.0,0.0,92,0.00,,,0.00,0,WeatherCatV1.15B25,2013-05-09 10:42:00,
2013-05-09 03:47:00,39.6,37.5,30.00,WNW,293,0.0,0.0,92,0.00,,,0.00,0,WeatherCatV1.15B25,2013-05-09 10:47:00,
2013-05-09 03:52:00,39.6,37.5,30.00,WNW,293,0.0,0.0,92,0.00,,,0.00,0,WeatherCatV1.15B25,2013-05-09 10:52:00,
2013-05-09 03:57:00,39.6,37.5,30.00,WNW,293,0.0,0.0,92,0.00,,,0.00,0,WeatherCatV1.15B25,2013-05-09 10:57:00,
2013-05-09 04:02:00,39.6,37.5,29.99,WNW,293,0.0,0.0,92,0.00,,,0.00,0,WeatherCatV1.15B25,2013-05-09 11:02:00,
2013-05-09 04:07:00,39.6,37.5,29.99,WNW,293,0.0,0.0,92,0.00,,,0.00,0,WeatherCatV1.15B25,2013-05-09 11:07:00,
2013-05-09 04:12:00,39.6,37.5,29.99,WNW,293,0.0,0.0,92,0.00,,,0.00,0,WeatherCatV1.15B25,2013-05-09 11:12:00,
2013-05-09 04:17:00,39.6,37.5,30.02,WNW,293,0.0,0.0,92,0.00,,,0.00,0,WeatherCatV1.15B25,2013-05-09 11:17:00,
2013-05-09 04:22:00,39.6,37.5,30.02,WNW,293,0.0,0.0,92,0.00,,,0.00,0,WeatherCatV1.15B25,2013-05-09 11:22:00,
2013-05-09 04:27:00,39.6,37.5,30.02,WNW,293,0.0,0.0,92,0.00,,,0.00,0,WeatherCatV1.15B25,2013-05-09 11:27:00,
2013-05-09 04:32:00,39.5,37.4,30.02,WNW,293,0.0,0.0,92,0.00,,,0.00,0,WeatherCatV1.15B25,2013-05-09 11:32:00,
2013-05-09 04:37:00,39.3,37.2,30.02,WNW,288,0.0,1.0,92,0.00,,,0.00,0,WeatherCatV1.15B25,2013-05-09 11:37:00,
2013-05-09 04:42:00,39.2,37.1,30.02,WNW,288,0.0,0.0,92,0.00,,,0.00,0,WeatherCatV1.15B25,2013-05-09 11:42:00,
2013-05-09 04:47:00,39.2,37.1,30.02,WNW,288,0.0,0.0,92,0.00,,,0.00,0,WeatherCatV1.15B25,2013-05-09 11:47:00,
2013-05-09 04:52:00,39.1,37.0,30.02,WSW,249,2.0,2.0,92,0.00,,,0.00,0,WeatherCatV1.15B25,2013-05-09 11:52:00,
2013-05-09 04:57:00,39.1,37.0,30.02,WSW,249,0.0,0.0,92,0.00,,,0.00,0,WeatherCatV1.15B25,2013-05-09 11:57:00,
2013-05-09 05:02:00,39.1,37.0,30.02,WSW,249,0.0,0.0,92,0.00,,,0.00,0,WeatherCatV1.15B25,2013-05-09 12:02:00,
2013-05-09 05:07:00,39.1,36.7,30.02,WSW,249,0.0,0.0,91,0.00,,,0.00,0,WeatherCatV1.15B25,2013-05-09 12:07:00,
2013-05-09 05:12:00,39.1,36.4,30.02,WSW,249,0.0,0.0,90,0.00,,,0.00,0,WeatherCatV1.15B25,2013-05-09 12:12:00,
2013-05-09 05:17:00,39.2,36.5,29.98,WSW,249,0.0,0.0,90,0.00,,,0.00,0,WeatherCatV1.15B25,2013-05-09 12:17:00,
2013-05-09 05:22:00,39.2,36.2,29.98,WSW,249,0.0,0.0,89,0.00,,,0.00,0,WeatherCatV1.15B25,2013-05-09 12:22:00,
2013-05-09 05:27:00,39.2,36.2,29.98,WSW,249,0.0,3.0,89,0.00,,,0.00,0,WeatherCatV1.15B25,2013-05-09 12:27:00,
2013-05-09 05:32:00,39.1,36.1,29.99,WSW,249,0.0,0.0,89,0.00,,,0.00,0,WeatherCatV1.15B25,2013-05-09 12:32:00,
2013-05-09 05:37:00,39.1,36.1,29.99,WSW,249,0.0,0.0,89,0.00,,,0.00,0,WeatherCatV1.15B25,2013-05-09 12:37:00,
2013-05-09 05:42:00,39.1,36.1,29.99,WSW,249,0.0,0.0,89,0.00,,,0.00,0,WeatherCatV1.15B25,2013-05-09 12:42:00,
2013-05-09 05:47:00,38.9,35.9,29.99,WSW,249,0.0,0.0,89,0.00,,,0.00,0,WeatherCatV1.15B25,2013-05-09 12:47:00,
2013-05-09 05:52:00,38.8,35.8,29.99,WSW,249,0.0,0.0,89,0.00,,,0.00,0,WeatherCatV1.15B25,2013-05-09 12:52:00,
2013-05-09 05:57:00,38.8,35.6,29.99,WSW,249,0.0,0.0,88,0.00,,,0.00,7,WeatherCatV1.15B25,2013-05-09 12:57:00,
2013-05-09 06:02:00,38.9,35.7,30.00,WSW,249,0.0,0.0,88,0.00,,,0.00,9,WeatherCatV1.15B25,2013-05-09 13:02:00,
2013-05-09 06:07:00,39.1,35.6,30.00,WSW,249,0.0,0.0,87,0.00,,,0.00,14,WeatherCatV1.15B25,2013-05-09 13:07:00,
2013-05-09 06:12:00,39.3,35.8,30.00,WSW,248,2.0,4.0,87,0.00,,,0.00,19,WeatherCatV1.15B25,2013-05-09 13:12:00,
2013-05-09 06:17:00,39.8,36.0,30.02,South,185,1.0,5.0,86,0.00,,,0.00,16,WeatherCatV1.15B25,2013-05-09 13:17:00,
2013-05-09 06:22:00,40.1,36.0,30.02,South,185,0.0,0.0,85,0.00,,,0.00,39,WeatherCatV1.15B25,2013-05-09 13:22:00,
2013-05-09 06:27:00,40.3,36.2,30.02,South,185,0.0,0.0,85,0.00,,,0.00,49,WeatherCatV1.15B25,2013-05-09 13:27:00,
2013-05-09 06:32:00,40.6,36.2,30.01,SSE,166,0.0,0.0,84,0.00,,,0.00,62,WeatherCatV1.15B25,2013-05-09 13:32:00,
2013-05-09 06:37:00,40.9,36.1,30.01,SSE,166,0.0,0.0,83,0.00,,,0.00,69,WeatherCatV1.15B25,2013-05-09 13:37:00,
2013-05-09 06:42:00,41.2,36.4,30.01,SSE,166,0.0,0.0,83,0.00,,,0.00,83,WeatherCatV1.15B25,2013-05-09 13:42:00,
2013-05-09 06:47:00,41.6,36.8,30.01,SSE,166,0.0,1.0,83,0.00,,,0.00,98,WeatherCatV1.15B25,2013-05-09 13:47:00,
2013-05-09 06:52:00,41.8,37.3,30.01,WSW,255,0.0,1.0,84,0.00,,,0.00,123,WeatherCatV1.15B25,2013-05-09 13:52:00,
2013-05-09 06:57:00,41.9,37.7,30.01,WSW,255,0.0,0.0,85,0.00,,,0.00,118,WeatherCatV1.15B25,2013-05-09 13:57:00,
2013-05-09 07:02:00,41.6,37.7,30.02,WSW,255,0.0,0.0,86,0.00,,,0.00,144,WeatherCatV1.15B25,2013-05-09 14:02:00,
2013-05-09 07:07:00,41.3,37.4,30.02,WSW,255,0.0,0.0,86,0.00,,,0.00,149,WeatherCatV1.15B25,2013-05-09 14:07:00,
2013-05-09 07:12:00,41.3,37.7,30.02,WSW,255,0.0,0.0,87,0.00,,,0.00,234,WeatherCatV1.15B25,2013-05-09 14:12:00,
2013-05-09 07:17:00,41.3,37.7,30.09,WSW,255,0.0,0.0,87,0.00,,,0.00,144,WeatherCatV1.15B25,2013-05-09 14:17:00,
2013-05-09 07:22:00,41.2,37.6,30.09,WSW,255,0.0,0.0,87,0.00,,,0.00,146,WeatherCatV1.15B25,2013-05-09 14:22:00,
2013-05-09 07:27:00,41.1,37.8,30.09,WSW,255,0.0,0.0,88,0.00,,,0.00,178,WeatherCatV1.15B25,2013-05-09 14:27:00,
2013-05-09 07:32:00,41.1,37.8,30.10,WSW,255,0.0,0.0,88,0.00,,,0.00,181,WeatherCatV1.15B25,2013-05-09 14:32:00,
2013-05-09 07:37:00,41.1,38.1,30.10,WSW,255,0.0,0.0,89,0.00,,,0.00,229,WeatherCatV1.15B25,2013-05-09 14:37:00,
2013-05-09 07:42:00,41.1,38.1,30.10,WSW,255,0.0,0.0,89,0.00,,,0.00,297,WeatherCatV1.15B25,2013-05-09 14:42:00,
2013-05-09 07:47:00,41.1,38.1,30.10,WSW,255,0.0,0.0,89,0.00,,,0.00,295,WeatherCatV1.15B25,2013-05-09 14:47:00,
2013-05-09 07:52:00,41.2,38.2,30.10,WSW,255,0.0,0.0,89,0.00,,,0.00,260,WeatherCatV1.15B25,2013-05-09 14:52:00,
2013-05-09 07:57:00,41.3,38.3,30.10,WSW,255,0.0,0.0,89,0.00,,,0.00,308,WeatherCatV1.15B25,2013-05-09 14:57:00,
2013-05-09 08:02:00,41.5,38.8,30.10,WSW,255,0.0,0.0,90,0.00,,,0.00,325,WeatherCatV1.15B25,2013-05-09 15:02:00,
2013-05-09 08:07:00,41.6,38.6,30.10,West,268,0.0,3.0,89,0.00,,,0.00,341,WeatherCatV1.15B25,2013-05-09 15:07:00,
2013-05-09 08:12:00,41.6,38.6,30.10,WNW,283,3.0,4.0,89,0.00,,,0.00,316,WeatherCatV1.15B25,2013-05-09 15:12:00,
2013-05-09 08:17:00,41.6,38.6,30.12,WNW,288,3.0,4.0,89,0.00,,,0.00,397,WeatherCatV1.15B25,2013-05-09 15:17:00,
2013-05-09 08:22:00,41.6,38.6,30.12,WNW,293,0.0,4.0,89,0.00,,,0.00,362,WeatherCatV1.15B25,2013-05-09 15:22:00,
2013-05-09 08:27:00,41.8,38.8,30.12,WNW,293,0.0,4.0,89,0.00,,,0.00,411,WeatherCatV1.15B25,2013-05-09 15:27:00,
2013-05-09 08:32:00,41.9,38.9,30.13,NW,306,0.0,3.0,89,0.00,,,0.00,492,WeatherCatV1.15B25,2013-05-09 15:32:00,
2013-05-09 08:37:00,42.1,39.1,30.13,WNW,303,0.0,0.0,89,0.00,,,0.00,441,WeatherCatV1.15B25,2013-05-09 15:37:00,
2013-05-09 08:42:00,42.2,39.2,30.13,WNW,303,1.0,1.0,89,0.00,,,0.00,457,WeatherCatV1.15B25,2013-05-09 15:42:00,
2013-05-09 08:47:00,42.3,39.3,30.13,NW,306,5.0,6.0,89,0.00,,,0.00,475,WeatherCatV1.15B25,2013-05-09 15:47:00,
2013-05-09 08:52:00,42.5,39.5,30.13,NW,307,3.0,3.0,89,0.00,,,0.00,548,WeatherCatV1.15B25,2013-05-09 15:52:00,
2013-05-09 08:57:00,42.8,39.8,30.13,West,267,3.0,4.0,89,0.00,,,0.00,531,WeatherCatV1.15B25,2013-05-09 15:57:00,
2013-05-09 09:02:00,43.1,39.8,30.11,WNW,293,3.0,4.0,88,0.00,,,0.00,522,WeatherCatV1.15B25,2013-05-09 16:02:00,
2013-05-09 09:07:00,43.2,39.9,30.11,WNW,297,0.0,0.0,88,0.00,,,0.00,538,WeatherCatV1.15B25,2013-05-09 16:07:00,
2013-05-09 09:12:00,43.8,40.2,30.11,WNW,297,0.0,0.0,87,0.00,,,0.00,548,WeatherCatV1.15B25,2013-05-09 16:12:00,
2013-05-09 09:17:00,44.6,40.7,30.11,SE,132,3.0,6.0,86,0.00,,,0.00,557,WeatherCatV1.15B25,2013-05-09 16:17:00,
2013-05-09 09:22:00,46.8,40.3,30.11,East,82,1.0,4.0,78,0.00,,,0.00,575,WeatherCatV1.15B25,2013-05-09 16:22:00,
2013-05-09 09:27:00,49.1,39.0,30.11,SE,126,0.0,6.0,68,0.00,,,0.00,598,WeatherCatV1.15B25,2013-05-09 16:27:00,
2013-05-09 09:32:00,50.8,39.1,30.07,SE,127,6.0,6.0,64,0.00,,,0.00,606,WeatherCatV1.15B25,2013-05-09 16:32:00,
2013-05-09 09:37:00,52.2,38.3,30.07,ESE,114,4.0,8.0,59,0.00,,,0.00,622,WeatherCatV1.15B25,2013-05-09 16:37:00,
2013-05-09 09:42:00,52.6,38.2,30.07,ESE,114,6.0,6.0,58,0.00,,,0.00,638,WeatherCatV1.15B25,2013-05-09 16:42:00,
2013-05-09 09:47:00,52.9,39.0,30.06,ESE,112,2.0,9.0,59,0.00,,,0.00,636,WeatherCatV1.15B25,2013-05-09 16:47:00,
2013-05-09 09:52:00,53.1,38.7,30.06,ESE,111,0.0,5.0,58,0.00,,,0.00,656,WeatherCatV1.15B25,2013-05-09 16:52:00,
2013-05-09 09:57:00,53.1,38.7,30.06,East,97,4.0,6.0,58,0.00,,,0.00,671,WeatherCatV1.15B25,2013-05-09 16:57:00,
2013-05-09 10:02:00,53.6,38.7,30.05,ESE,103,0.0,7.0,57,0.00,,,0.00,687,WeatherCatV1.15B25,2013-05-09 17:02:00,
2013-05-09 10:07:00,54.1,37.8,30.05,SE,130,5.0,9.0,54,0.00,,,0.00,703,WeatherCatV1.15B25,2013-05-09 17:07:00,
2013-05-09 10:12:00,54.1,38.3,30.05,SE,136,5.0,7.0,55,0.00,,,0.00,726,WeatherCatV1.15B25,2013-05-09 17:12:00,
2013-05-09 10:17:00,53.9,38.1,30.04,SE,137,1.0,15.0,55,0.00,,,0.00,731,WeatherCatV1.15B25,2013-05-09 17:17:00,
2013-05-09 10:22:00,54.1,38.3,30.04,ESE,114,6.0,7.0,55,0.00,,,0.00,754,WeatherCatV1.15B25,2013-05-09 17:22:00,
2013-05-09 10:27:00,54.4,38.1,30.04,ESE,123,6.0,9.0,54,0.00,,,0.00,752,WeatherCatV1.15B25,2013-05-09 17:27:00,
2013-05-09 10:32:00,54.4,38.6,30.04,ESE,110,1.0,11.0,55,0.00,,,0.00,772,WeatherCatV1.15B25,2013-05-09 17:32:00,
2013-05-09 10:37:00,54.8,38.9,30.04,East,97,1.0,6.0,55,0.00,,,0.00,796,WeatherCatV1.15B25,2013-05-09 17:37:00,
2013-05-09 10:42:00,55.0,38.2,30.04,South,175,11.0,14.0,53,0.00,,,0.00,802,WeatherCatV1.15B25,2013-05-09 17:42:00,
2013-05-09 10:47:00,54.8,38.5,30.05,SE,130,7.0,13.0,54,0.00,,,0.00,828,WeatherCatV1.15B25,2013-05-09 17:47:00,
2013-05-09 10:52:00,55.3,38.9,30.05,ESE,119,5.0,12.0,54,0.00,,,0.00,837,WeatherCatV1.15B25,2013-05-09 17:52:00,
2013-05-09 10:57:00,55.3,38.9,30.05,East,92,0.0,11.0,54,0.00,,,0.00,847,WeatherCatV1.15B25,2013-05-09 17:57:00,
2013-05-09 11:02:00,55.4,39.0,30.05,SE,133,7.0,8.0,54,0.00,,,0.00,853,WeatherCatV1.15B25,2013-05-09 18:02:00,
2013-05-09 11:07:00,55.6,38.3,30.05,ESE,102,9.0,12.0,52,0.00,,,0.00,868,WeatherCatV1.15B25,2013-05-09 18:07:00,
2013-05-09 11:12:00,56.3,38.9,30.05,East,101,5.0,10.0,52,0.00,,,0.00,896,WeatherCatV1.15B25,2013-05-09 18:12:00,
2013-05-09 11:17:00,56.5,38.6,30.04,SE,140,3.0,17.0,51,0.00,,,0.00,902,WeatherCatV1.15B25,2013-05-09 18:17:00,
2013-05-09 11:22:00,57.0,39.1,30.04,South,186,6.0,12.0,51,0.00,,,0.00,911,WeatherCatV1.15B25,2013-05-09 18:22:00,
2013-05-09 11:27:00,57.2,38.2,30.04,ESE,111,3.0,11.0,49,0.00,,,0.00,853,WeatherCatV1.15B25,2013-05-09 18:27:00,
2013-05-09 11:32:00,57.3,37.8,30.04,ESE,112,0.0,10.0,48,0.00,,,0.00,860,WeatherCatV1.15B25,2013-05-09 18:32:00,
2013-05-09 11:37:00,58.0,38.4,30.04,ESE,121,4.0,13.0,48,0.00,,,0.00,840,WeatherCatV1.15B25,2013-05-09 18:37:00,
2013-05-09 11:42:00,58.3,37.6,30.04,SSE,154,0.0,10.0,46,0.00,,,0.00,928,WeatherCatV1.15B25,2013-05-09 18:42:00,
2013-05-09 11:47:00,58.3,37.6,30.04,East,93,4.0,6.0,46,0.00,,,0.00,942,WeatherCatV1.15B25,2013-05-09 18:47:00,
2013-05-09 11:52:00,58.4,36.0,30.04,East,101,0.0,6.0,43,0.00,,,0.00,919,WeatherCatV1.15B25,2013-05-09 18:52:00,
2013-05-09 11:57:00,59.0,37.1,30.04,SE,144,0.0,1.0,44,0.00,,,0.00,858,WeatherCatV1.15B25,2013-05-09 18:57:00,
2013-05-09 12:02:00,60.1,36.3,30.03,East,93,3.0,5.0,41,0.00,,,0.00,940,WeatherCatV1.15B25,2013-05-09 19:02:00,
2013-05-09 12:07:00,60.7,34.9,30.03,ENE,73,1.0,5.0,38,0.00,,,0.00,1065,WeatherCatV1.15B25,2013-05-09 19:07:00,
2013-05-09 12:12:00,61.6,36.4,30.03,East,93,1.0,6.0,39,0.00,,,0.00,1018,WeatherCatV1.15B25,2013-05-09 19:12:00,
2013-05-09 12:17:00,61.8,36.6,30.02,East,98,5.0,7.0,39,0.00,,,0.00,986,WeatherCatV1.15B25,2013-05-09 19:17:00,
2013-05-09 12:22:00,62.3,37.7,30.02,East,91,6.0,7.0,40,0.00,,,0.00,1034,WeatherCatV1.15B25,2013-05-09 19:22:00,
2013-05-09 12:27:00,63.1,37.7,30.02,SE,133,1.0,7.0,39,0.00,,,0.00,1067,WeatherCatV1.15B25,2013-05-09 19:27:00,
2013-05-09 12:32:00,63.5,35.4,29.99,ENE,74,0.0,5.0,35,0.00,,,0.00,1037,WeatherCatV1.15B25,2013-05-09 19:32:00,
2013-05-09 12:37:00,63.5,36.8,29.99,SE,130,1.0,9.0,37,0.00,,,0.00,1013,WeatherCatV1.15B25,2013-05-09 19:37:00,
2013-05-09 12:42:00,63.2,35.8,29.99,SSE,165,7.0,11.0,36,0.00,,,0.00,230,WeatherCatV1.15B25,2013-05-09 19:42:00,
2013-05-09 12:47:00,62.3,35.0,30.00,ESE,103,1.0,6.0,36,0.00,,,0.00,1106,WeatherCatV1.15B25,2013-05-09 19:47:00,
2013-05-09 12:52:00,62.3,36.4,30.00,SE,126,0.0,7.0,38,0.00,,,0.00,1041,WeatherCatV1.15B25,2013-05-09 19:52:00,
2013-05-09 12:57:00,62.1,36.2,30.00,SE,133,1.0,9.0,38,0.00,,,0.00,1055,WeatherCatV1.15B25,2013-05-09 19:57:00,
2013-05-09 13:02:00,63.1,37.1,30.01,SSE,149,4.0,8.0,38,0.00,,,0.00,1053,WeatherCatV1.15B25,2013-05-09 20:02:00,
2013-05-09 13:07:00,63.2,33.6,30.01,SSE,155,7.0,12.0,33,0.00,,,0.00,1067,WeatherCatV1.15B25,2013-05-09 20:07:00,
2013-05-09 13:13:00,63.4,36.0,30.01,South,171,0.0,1.0,36,0.00,,,0.00,589,WeatherCatV1.15B25,2013-05-09 20:13:00,
2013-05-09 13:19:00,63.4,32.2,30.00,SSE,159,0.0,0.0,31,0.00,,,0.00,445,WeatherCatV1.15B25,2013-05-09 20:19:00,
2013-05-09 13:25:00,63.1,35.7,30.00,NE,56,0.0,1.0,36,0.00,,,0.00,288,WeatherCatV1.15B25,2013-05-09 20:25:00,
2013-05-09 13:31:00,62.0,38.0,29.99,NW,311,0.0,6.0,41,0.00,,,0.00,334,WeatherCatV1.15B25,2013-05-09 20:31:00,
2013-05-09 13:37:00,60.5,37.3,29.99,WNW,297,4.0,5.0,42,0.00,,,0.00,279,WeatherCatV1.15B25,2013-05-09 20:37:00,
2013-05-09 13:43:00,59.2,39.5,29.99,WNW,293,2.0,4.0,48,0.00,,,0.00,360,WeatherCatV1.15B25,2013-05-09 20:43:00,
2013-05-09 13:49:00,58.3,38.7,30.02,West,272,3.0,4.0,48,0.00,,,0.00,438,WeatherCatV1.15B25,2013-05-09 20:49:00,
2013-05-09 13:55:00,57.6,37.5,30.02,West,274,0.0,0.0,47,0.00,,,0.00,229,WeatherCatV1.15B25,2013-05-09 20:55:00,
2013-05-09 14:01:00,56.9,39.0,30.03,West,276,0.0,1.0,51,0.00,,,0.00,1113,WeatherCatV1.15B25,2013-05-09 21:01:00,
2013-05-09 14:07:00,56.6,38.2,30.03,West,273,0.0,5.0,50,0.00,,,0.00,288,WeatherCatV1.15B25,2013-05-09 21:07:00,
2013-05-09 14:13:00,57.5,39.5,30.03,West,272,0.0,0.0,51,0.00,,,0.00,199,WeatherCatV1.15B25,2013-05-09 21:13:00,
2013-05-09 14:19:00,57.3,36.7,30.03,WNW,283,0.0,6.0,46,0.00,,,0.00,213,WeatherCatV1.15B25,2013-05-09 21:19:00,
2013-05-09 14:25:00,56.7,37.8,30.03,WNW,283,0.0,2.0,49,0.00,,,0.00,174,WeatherCatV1.15B25,2013-05-09 21:25:00,
2013-05-09 14:31:00,56.6,37.7,30.05,SSE,150,0.0,4.0,49,0.00,,,0.00,213,WeatherCatV1.15B25,2013-05-09 21:31:00,
2013-05-09 14:37:00,56.0,38.1,30.05,WNW,301,6.0,6.0,51,0.00,,,0.00,557,WeatherCatV1.15B25,2013-05-09 21:37:00,
2013-05-09 14:43:00,55.6,37.8,30.05,NW,304,6.0,10.0,51,0.00,,,0.00,418,WeatherCatV1.15B25,2013-05-09 21:43:00,
2013-05-09 14:49:00,55.4,38.1,30.06,WSW,237,3.0,6.0,52,0.00,,,0.00,589,WeatherCatV1.15B25,2013-05-09 21:49:00,
2013-05-09 14:55:00,55.9,37.0,30.06,WNW,283,3.0,9.0,49,0.00,,,0.00,323,WeatherCatV1.15B25,2013-05-09 21:55:00,
2013-05-09 15:00:00,55.6,37.3,30.04,WNW,293,3.0,5.0,50,0.00,,,0.00,302,WeatherCatV1.15B25,2013-05-09 22:00:00,
2013-05-09 15:05:00,55.3,38.5,30.04,West,272,0.0,3.0,53,0.00,,,0.00,418,WeatherCatV1.15B25,2013-05-09 22:05:00,
2013-05-09 15:10:00,55.1,36.3,30.04,South,182,2.0,6.0,49,0.00,,,0.00,346,WeatherCatV1.15B25,2013-05-09 22:10:00,
2013-05-09 15:15:00,55.7,36.8,30.04,West,272,4.0,4.0,49,0.00,,,0.00,570,WeatherCatV1.15B25,2013-05-09 22:15:00,
2013-05-09 15:20:00,56.2,37.3,30.04,NW,320,0.0,1.0,49,0.00,,,0.00,155,WeatherCatV1.15B25,2013-05-09 22:20:00,
2013-05-09 15:25:00,56.3,36.9,30.04,NW,320,5.0,5.0,48,0.00,,,0.00,137,WeatherCatV1.15B25,2013-05-09 22:25:00,
2013-05-09 15:30:00,56.2,37.8,30.04,NW,319,1.0,1.0,50,0.00,,,0.00,204,WeatherCatV1.15B25,2013-05-09 22:30:00,
2013-05-09 15:35:00,56.0,38.1,30.04,NW,319,0.0,1.0,51,0.00,,,0.00,311,WeatherCatV1.15B25,2013-05-09 22:35:00,
2013-05-09 15:40:00,56.3,37.4,30.04,NW,319,2.0,5.0,49,0.00,,,0.00,564,WeatherCatV1.15B25,2013-05-09 22:40:00,
2013-05-09 15:45:00,56.2,37.3,30.03,WNW,302,5.0,6.0,49,0.00,,,0.00,497,WeatherCatV1.15B25,2013-05-09 22:45:00,
2013-05-09 15:50:00,56.0,36.6,30.03,WNW,283,2.0,9.0,48,0.00,,,0.00,504,WeatherCatV1.15B25,2013-05-09 22:50:00,
2013-05-09 15:55:00,56.0,38.1,30.03,SSW,199,0.0,4.0,51,0.00,,,0.00,345,WeatherCatV1.15B25,2013-05-09 22:55:00,
2013-05-09 16:00:00,56.5,38.6,30.03,SSW,200,0.0,1.0,51,0.00,,,0.00,315,WeatherCatV1.15B25,2013-05-09 23:00:00,
2013-05-09 16:05:00,57.0,37.5,30.03,SSW,197,0.0,1.0,48,0.00,,,0.00,596,WeatherCatV1.15B25,2013-05-09 23:05:00,
2013-05-09 16:10:00,57.6,37.0,30.03,WNW,288,0.0,4.0,46,0.00,,,0.00,721,WeatherCatV1.15B25,2013-05-09 23:10:00,
2013-05-09 16:15:00,58.3,38.7,30.02,WNW,288,0.0,0.0,48,0.00,,,0.00,737,WeatherCatV1.15B25,2013-05-09 23:15:00,
2013-05-09 16:20:00,59.6,35.2,30.02,WNW,288,0.0,6.0,40,0.00,,,0.00,603,WeatherCatV1.15B25,2013-05-09 23:20:00,
2013-05-09 16:25:00,59.9,36.1,30.02,North,6,3.0,3.0,41,0.00,,,0.00,701,WeatherCatV1.15B25,2013-05-09 23:25:00,
2013-05-09 16:30:00,59.2,35.5,30.01,North,355,0.0,2.0,41,0.00,,,0.00,77,WeatherCatV1.15B25,2013-05-09 23:30:00,
2013-05-09 16:35:00,59.5,37.6,30.01,NNW,333,3.0,7.0,44,0.00,,,0.00,656,WeatherCatV1.15B25,2013-05-09 23:35:00,
2013-05-09 16:40:00,59.2,36.1,30.01,WNW,293,4.0,7.0,42,0.00,,,0.00,647,WeatherCatV1.15B25,2013-05-09 23:40:00,
2013-05-09 16:45:00,58.7,35.1,30.02,North,351,0.0,4.0,41,0.00,,,0.00,622,WeatherCatV1.15B25,2013-05-09 23:45:00,
2013-05-09 16:50:00,59.0,35.9,30.02,WNW,283,2.0,5.0,42,0.00,,,0.00,617,WeatherCatV1.15B25,2013-05-09 23:50:00,
2013-05-09 16:55:00,59.3,37.4,30.02,WNW,283,0.0,5.0,44,0.00,,,0.00,619,WeatherCatV1.15B25,2013-05-09 23:55:00,
2013-05-09 17:00:00,59.8,36.7,30.02,West,278,5.0,6.0,42,0.00,,,0.00,612,WeatherCatV1.15B25,2013-05-10 00:00:00,
2013-05-09 17:05:00,59.9,34.9,30.02,WNW,288,2.0,10.0,39,0.00,,,0.00,580,WeatherCatV1.15B25,2013-05-10 00:05:00,
2013-05-09 17:10:00,59.8,36.7,30.02,SSW,202,0.0,4.0,42,0.00,,,0.00,559,WeatherCatV1.15B25,2013-05-10 00:10:00,
2013-05-09 17:15:00,59.6,35.2,30.03,WNW,288,5.0,5.0,40,0.00,,,0.00,531,WeatherCatV1.15B25,2013-05-10 00:15:00,
2013-05-09 17:20:00,60.1,37.5,30.03,West,272,0.0,2.0,43,0.00,,,0.00,512,WeatherCatV1.15B25,2013-05-10 00:20:00,
2013-05-09 17:25:00,61.0,35.2,30.03,West,272,0.0,3.0,38,0.00,,,0.00,496,WeatherCatV1.15B25,2013-05-10 00:25:00,
2013-05-09 17:30:00,61.6,35.7,30.00,WSW,239,0.0,3.0,38,0.00,,,0.00,482,WeatherCatV1.15B25,2013-05-10 00:30:00,
2013-05-09 17:35:00,62.7,36.0,30.00,WSW,238,0.0,1.0,37,0.00,,,0.00,466,WeatherCatV1.15B25,2013-05-10 00:35:00,
2013-05-09 17:40:00,63.4,35.3,30.00,WNW,283,0.0,5.0,35,0.00,,,0.00,448,WeatherCatV1.15B25,2013-05-10 00:40:00,
2013-05-09 17:45:00,63.2,34.4,29.99,WNW,293,5.0,7.0,34,0.00,,,0.00,427,WeatherCatV1.15B25,2013-05-10 00:45:00,
2013-05-09 17:50:00,62.6,37.3,29.99,West,278,5.0,6.0,39,0.00,,,0.00,408,WeatherCatV1.15B25,2013-05-10 00:50:00,
2013-05-09 17:55:00,62.1,35.5,29.99,WNW,293,0.0,5.0,37,0.00,,,0.00,392,WeatherCatV1.15B25,2013-05-10 00:55:00,
2013-05-09 18:00:00,61.8,34.6,30.01,WNW,288,10.0,10.0,36,0.00,,,0.00,378,WeatherCatV1.15B25,2013-05-10 01:00:00,
2013-05-09 18:05:00,60.7,34.3,30.01,NW,305,3.0,9.0,37,0.00,,,0.00,362,WeatherCatV1.15B25,2013-05-10 01:05:00,
2013-05-09 18:10:00,59.9,34.2,30.01,WNW,283,4.0,7.0,38,0.00,,,0.00,341,WeatherCatV1.15B25,2013-05-10 01:10:00,
2013-05-09 18:15:00,59.5,35.2,29.99,WNW,288,1.0,4.0,40,0.00,,,0.00,325,WeatherCatV1.15B25,2013-05-10 01:15:00,
2013-05-09 18:20:00,59.2,34.3,29.99,WNW,298,4.0,6.0,39,0.00,,,0.00,308,WeatherCatV1.15B25,2013-05-10 01:20:00,
2013-05-09 18:25:00,58.7,35.1,29.99,West,269,4.0,5.0,41,0.00,,,0.00,297,WeatherCatV1.15B25,2013-05-10 01:25:00,
2013-05-09 18:30:00,58.6,35.6,30.01,West,274,2.0,5.0,42,0.00,,,0.00,246,WeatherCatV1.15B25,2013-05-10 01:30:00,
2013-05-09 18:35:00,58.3,34.1,30.01,WNW,301,4.0,8.0,40,0.00,,,0.00,251,WeatherCatV1.15B25,2013-05-10 01:35:00,
2013-05-09 18:40:00,58.0,35.0,30.01,WNW,293,4.0,7.0,42,0.00,,,0.00,237,WeatherCatV1.15B25,2013-05-10 01:40:00,
2013-05-09 18:45:00,57.8,35.5,30.01,NW,314,0.0,5.0,43,0.00,,,0.00,225,WeatherCatV1.15B25,2013-05-10 01:45:00,
2013-05-09 18:50:00,57.8,35.5,30.01,WNW,283,5.0,9.0,43,0.00,,,0.00,218,WeatherCatV1.15B25,2013-05-10 01:50:00,
2013-05-09 18:55:00,57.5,35.2,30.01,West,278,5.0,11.0,43,0.00,,,0.00,190,WeatherCatV1.15B25,2013-05-10 01:55:00,
2013-05-09 19:00:00,57.0,35.3,30.03,WSW,249,11.0,12.0,44,0.00,,,0.00,163,WeatherCatV1.15B25,2013-05-10 02:00:00,
2013-05-09 19:05:00,56.5,35.4,30.03,West,274,10.0,13.0,45,0.00,,,0.00,144,WeatherCatV1.15B25,2013-05-10 02:05:00,
2013-05-09 19:10:00,55.9,36.0,30.03,WNW,283,3.0,7.0,47,0.00,,,0.00,109,WeatherCatV1.15B25,2013-05-10 02:10:00,
2013-05-09 19:15:00,55.4,37.6,30.03,WNW,301,6.0,8.0,51,0.00,,,0.00,111,WeatherCatV1.15B25,2013-05-10 02:15:00,
2013-05-09 19:20:00,54.8,38.9,30.03,NW,308,5.0,7.0,55,0.00,,,0.00,23,WeatherCatV1.15B25,2013-05-10 02:20:00,
2013-05-09 19:25:00,54.2,39.3,30.03,NW,312,5.0,7.0,57,0.00,,,0.00,18,WeatherCatV1.15B25,2013-05-10 02:25:00,
2013-05-09 19:30:00,53.8,39.4,30.05,NW,305,7.0,9.0,58,0.00,,,0.00,12,WeatherCatV1.15B25,2013-05-10 02:30:00,
2013-05-09 19:35:00,53.2,40.1,30.05,NW,309,5.0,7.0,61,0.00,,,0.00,11,WeatherCatV1.15B25,2013-05-10 02:35:00,
2013-05-09 19:40:00,52.8,40.6,30.05,WNW,297,5.0,9.0,63,0.00,,,0.00,21,WeatherCatV1.15B25,2013-05-10 02:40:00,
2013-05-09 19:45:00,52.5,41.1,30.06,WNW,293,5.0,9.0,65,0.00,,,0.00,9,WeatherCatV1.15B25,2013-05-10 02:45:00,
2013-05-09 19:50:00,52.2,41.2,30.06,WNW,288,7.0,8.0,66,0.00,,,0.00,11,WeatherCatV1.15B25,2013-05-10 02:50:00,
2013-05-09 19:55:00,51.9,41.3,30.06,NW,305,5.0,6.0,67,0.00,,,0.00,7,WeatherCatV1.15B25,2013-05-10 02:55:00,
2013-05-09 20:00:00,51.7,41.9,30.07,WNW,293,5.0,7.0,69,0.00,,,0.00,0,WeatherCatV1.15B25,2013-05-10 03:00:00,
2013-05-09 20:05:00,51.4,41.6,30.07,WNW,293,3.0,5.0,69,0.00,,,0.00,0,WeatherCatV1.15B25,2013-05-10 03:05:00,
2013-05-09 20:10:00,51.3,41.5,30.07,WNW,293,1.0,3.0,69,0.00,,,0.00,0,WeatherCatV1.15B25,2013-05-10 03:10:00,
2013-05-09 20:15:00,51.1,41.3,30.07,WNW,293,0.0,3.0,69,0.00,,,0.00,0,WeatherCatV1.15B25,2013-05-10 03:15:00,
2013-05-09 20:20:00,51.0,40.8,30.07,WNW,293,0.0,0.0,68,0.00,,,0.00,0,WeatherCatV1.15B25,2013-05-10 03:20:00,
2013-05-09 20:25:00,50.8,41.0,30.07,WNW,288,0.0,2.0,69,0.00,,,0.00,0,WeatherCatV1.15B25,2013-05-10 03:25:00,
2013-05-09 20:30:00,50.5,40.7,30.07,WNW,288,0.0,3.0,69,0.00,,,0.00,0,WeatherCatV1.15B25,2013-05-10 03:30:00,
2013-05-09 20:35:00,50.2,40.4,30.07,WNW,288,0.0,0.0,69,0.00,,,0.00,0,WeatherCatV1.15B25,2013-05-10 03:35:00,
2013-05-09 20:40:00,50.1,40.3,30.07,WNW,288,0.0,0.0,69,0.00,,,0.00,0,WeatherCatV1.15B25,2013-05-10 03:40:00,
2013-05-09 20:45:00,49.9,39.8,30.09,WNW,288,0.0,0.0,68,0.00,,,0.00,0,WeatherCatV1.15B25,2013-05-10 03:45:00,
2013-05-09 20:50:00,49.8,39.7,30.09,WNW,288,0.0,3.0,68,0.00,,,0.00,0,WeatherCatV1.15B25,2013-05-10 03:50:00,
2013-05-09 20:55:00,49.8,40.4,30.09,WNW,288,0.0,3.0,70,0.00,,,0.00,0,WeatherCatV1.15B25,2013-05-10 03:55:00,
2013-05-09 21:00:00,49.8,40.8,30.10,WNW,288,0.0,4.0,71,0.00,,,0.00,0,WeatherCatV1.15B25,2013-05-10 04:00:00,
2013-05-09 21:01:00,49.8,40.8,30.10,WNW,288,0.0,4.0,71,0.00,,,0.00,0,WeatherCatV1.15B25,2013-05-10 04:01:00,
2013-05-09 21:04:00,49.6,40.6,30.10,WNW,288,0.0,2.0,71,0.00,,,0.00,0,WeatherCatV1.15B25,2013-05-10 04:04:00,
2013-05-09 21:05:00,49.6,40.6,30.10,WNW,288,0.0,0.0,71,0.00,,,0.00,0,WeatherCatV1.15B25,2013-05-10 04:05:00,
2013-05-09 21:08:00,49.6,40.6,30.10,WNW,288,0.0,0.0,71,0.00,,,0.00,0,WeatherCatV1.15B25,2013-05-10 04:08:00,
2013-05-09 21:09:00,49.5,40.5,30.10,WNW,293,1.0,2.0,71,0.00,,,0.00,0,WeatherCatV1.15B25,2013-05-10 04:09:00,
2013-05-09 21:14:00,49.4,40.8,30.03,WNW,293,2.0,2.0,72,0.00,,,0.00,0,WeatherCatV1.15B25,2013-05-10 04:14:00,
2013-05-09 21:19:00,49.2,40.9,30.03,WNW,293,2.0,3.0,73,0.00,,,0.00,0,WeatherCatV1.15B25,2013-05-10 04:19:00,
2013-05-09 21:24:00,49.2,40.9,30.03,WNW,299,2.0,3.0,73,0.00,,,0.00,0,WeatherCatV1.15B25,2013-05-10 04:24:00,
2013-05-09 21:29:00,49.2,40.6,30.03,WNW,288,3.0,4.0,72,0.00,,,0.00,0,WeatherCatV1.15B25,2013-05-10 04:29:00,
2013-05-09 21:34:00,49.2,40.6,30.03,WNW,288,0.0,3.0,72,0.00,,,0.00,0,WeatherCatV1.15B25,2013-05-10 04:34:00,
2013-05-09 21:39:00,49.2,40.6,30.03,WNW,288,0.0,0.0,72,0.00,,,0.00,0,WeatherCatV1.15B25,2013-05-10 04:39:00,
2013-05-09 21:44:00,49.2,40.6,30.03,WNW,288,0.0,0.0,72,0.00,,,0.00,0,WeatherCatV1.15B25,2013-05-10 04:44:00,
2013-05-09 21:49:00,49.2,40.6,30.03,WNW,288,0.0,0.0,72,0.00,,,0.00,0,WeatherCatV1.15B25,2013-05-10 04:49:00,
2013-05-09 21:54:00,49.1,40.5,30.03,WNW,288,0.0,0.0,72,0.00,,,0.00,0,WeatherCatV1.15B25,2013-05-10 04:54:00,
2013-05-09 21:59:00,49.1,40.5,30.05,WNW,288,0.0,0.0,72,0.00,,,0.00,0,WeatherCatV1.15B25,2013-05-10 04:59:00,
2013-05-09 22:04:00,48.9,40.6,30.05,NNW,330,0.0,1.0,73,0.00,,,0.00,0,WeatherCatV1.15B25,2013-05-10 05:04:00,
2013-05-09 22:09:00,48.8,40.5,30.05,NNE,24,0.0,0.0,73,0.00,,,0.00,0,WeatherCatV1.15B25,2013-05-10 05:09:00,
2013-05-09 22:14:00,48.8,40.9,30.03,NNE,24,0.0,0.0,74,0.00,,,0.00,0,WeatherCatV1.15B25,2013-05-10 05:14:00,
2013-05-09 22:19:00,48.6,40.0,30.03,NNE,26,3.0,4.0,72,0.00,,,0.00,0,WeatherCatV1.15B25,2013-05-10 05:19:00,
2013-05-09 22:24:00,48.3,39.3,30.03,NNE,26,0.0,3.0,71,0.00,,,0.00,0,WeatherCatV1.15B25,2013-05-10 05:24:00,
2013-05-09 22:29:00,48.3,39.7,30.06,NNE,26,0.0,0.0,72,0.00,,,0.00,0,WeatherCatV1.15B25,2013-05-10 05:29:00,
2013-05-09 22:34:00,48.2,38.9,30.06,NNE,26,0.0,0.0,70,0.00,,,0.00,0,WeatherCatV1.15B25,2013-05-10 05:34:00,
2013-05-09 22:39:00,48.2,40.0,30.06,NNE,26,0.0,0.0,73,0.00,,,0.00,0,WeatherCatV1.15B25,2013-05-10 05:39:00,
2013-05-09 22:44:00,48.0,38.3,30.07,NNE,26,0.0,0.0,69,0.00,,,0.00,0,WeatherCatV1.15B25,2013-05-10 05:44:00,
2013-05-09 22:49:00,48.0,37.2,30.07,NNE,26,0.0,0.0,66,0.00,,,0.00,0,WeatherCatV1.15B25,2013-05-10 05:49:00,
2013-05-09 22:54:00,48.2,37.0,30.07,NNE,26,0.0,0.0,65,0.00,,,0.00,0,WeatherCatV1.15B25,2013-05-10 05:54:00,
2013-05-09 22:59:00,48.3,38.2,30.08,NNE,26,0.0,0.0,68,0.00,,,0.00,0,WeatherCatV1.15B25,2013-05-10 05:59:00,
2013-05-09 23:04:00,48.3,36.7,30.08,East,83,0.0,5.0,64,0.00,,,0.00,0,WeatherCatV1.15B25,2013-05-10 06:04:00,
2013-05-09 23:09:00,48.8,35.5,30.08,SE,135,5.0,12.0,60,0.00,,,0.00,0,WeatherCatV1.15B25,2013-05-10 06:09:00,
2013-05-09 23:14:00,49.6,34.6,30.03,SE,135,8.0,15.0,56,0.00,,,0.00,0,WeatherCatV1.15B25,2013-05-10 06:14:00,
2013-05-09 23:19:00,50.1,35.0,30.03,SE,133,10.0,10.0,56,0.00,,,0.00,0,WeatherCatV1.15B25,2013-05-10 06:19:00,
2013-05-09 23:24:00,50.1,35.9,30.03,ENE,70,13.0,16.0,58,0.00,,,0.00,0,WeatherCatV1.15B25,2013-05-10 06:24:00,
2013-05-09 23:29:00,49.8,36.1,30.03,ESE,114,5.0,14.0,59,0.00,,,0.00,0,WeatherCatV1.15B25,2013-05-10 06:29:00,
2013-05-09 23:34:00,49.4,36.5,30.03,East,87,4.0,19.0,61,0.00,,,0.00,0,WeatherCatV1.15B25,2013-05-10 06:34:00,
2013-05-09 23:39:00,48.9,36.5,30.03,East,93,21.0,21.0,62,0.00,,,0.00,0,WeatherCatV1.15B25,2013-05-10 06:39:00,
2013-05-09 23:44:00,48.3,36.7,30.05,ENE,70,5.0,17.0,64,0.00,,,0.00,0,WeatherCatV1.15B25,2013-05-10 06:44:00,
2013-05-09 23:49:00,47.9,38.6,30.05,SE,146,13.0,13.0,70,0.00,,,0.00,0,WeatherCatV1.15B25,2013-05-10 06:49:00,
2013-05-09 23:54:00,47.1,38.5,30.05,SE,143,10.0,11.0,72,0.00,,,0.01,0,WeatherCatV1.15B25,2013-05-10 06:54:00,
2013-05-09 23:59:00,46.7,38.5,30.05,South,178,9.0,12.0,73,0.00,,,0.01,0,WeatherCatV1.15B25,2013-05-10 06:59:00,